This is the latest recevied weather packets stored in our database for station/object KJ4AJP. If no packets are shown the sender has not sent any weather packets the latest 10 day(s).
| Time | Temp. | Humidity | Pressure | Rain* | Wind** | Luminosity | Snow |
|---|---|---|---|---|---|---|---|
| 1777922081 | 27.78° C | 35% | 1010.1 hPa | 0 mm | - | 745 W/m² | - |
| 1777921775 | 27.22° C | 38% | 1010.1 hPa | 0 mm | - | 752 W/m² | - |
| 1777921471 | 27.22° C | 36% | 1010 hPa | 0 mm | - | 761 W/m² | - |
| 1777921168 | 27.22° C | 35% | 1010.4 hPa | 0 mm | - | 759 W/m² | - |
| 1777920866 | 27.22° C | 36% | 1010.3 hPa | 0 mm | - | 766 W/m² | - |
| 1777920561 | 27.22° C | 37% | 1010.3 hPa | 0 mm | - | 768 W/m² | - |
| 1777920257 | 26.67° C | 37% | 1010.4 hPa | 0 mm | - | 769 W/m² | - |
| 1777919954 | 26.67° C | 38% | 1010.4 hPa | 0 mm | - | 784 W/m² | - |
| 1777919651 | 26.67° C | 37% | 1010.6 hPa | 0 mm | - | 787 W/m² | - |
| 1777919349 | 26.67° C | 36% | 1010.6 hPa | 0 mm | - | 781 W/m² | - |
| 1777919046 | 26.67° C | 37% | 1010.4 hPa | 0 mm | - | 790 W/m² | - |
| 1777918742 | 26.67° C | 37% | 1010.9 hPa | 0 mm | - | 791 W/m² | - |
| 1777918440 | 26.67° C | 39% | 1010.5 hPa | 0 mm | - | 795 W/m² | - |
| 1777918138 | 27.22° C | 38% | 1010.8 hPa | 0 mm | - | 798 W/m² | - |
| 1777917837 | 26.67° C | 38% | 1010.8 hPa | 0 mm | - | 794 W/m² | - |
| 1777917535 | 26.67° C | 37% | 1010.9 hPa | 0 mm | - | 798 W/m² | - |
| 1777917231 | 26.11° C | 39% | 1010.8 hPa | 0 mm | - | 799 W/m² | - |
| 1777916929 | 26.11° C | 39% | 1011.1 hPa | 0 mm | - | 795 W/m² | - |
| 1777916626 | 26.11° C | 37% | 1011 hPa | 0 mm | - | 795 W/m² | - |
| 1777916323 | 26.11° C | 39% | 1011 hPa | 0 mm | - | 792 W/m² | - |
| 1777916020 | 26.67° C | 38% | 1011.1 hPa | 0 mm | - | 788 W/m² | - |
| 1777915717 | 26.67° C | 39% | 1011.2 hPa | 0 mm | - | 789 W/m² | - |
| 1777915413 | 26.11° C | 37% | 1011.3 hPa | 0 mm | - | 781 W/m² | - |
| 1777915109 | 26.11° C | 38% | 1011.1 hPa | 0 mm | - | 776 W/m² | - |
| 1777914807 | 26.11° C | 38% | 1011.1 hPa | 0 mm | - | 776 W/m² | - |
* Rain latest hour (hover to see other rain measurements)
** Current wind speed in m/s (hover to see current wind gust speed)